[[{"header":{"parameterUnit":"m.s-1","parameterCategory":1,"la1":30.2991,"la2":30.254,"lo1":-89.0895,"lo2":-89.0444,"dy":0.0017,"dx":0.0017,"nx":28,"ny":28,"refTime":"2024-06-18T03:00:00:Z","depth":0,"parameterNumber":2,"parameterNumberName":"U-component_of_WINDS"},"data":[0,0,0,0,0,0,0,0,0,0,0,0,0,0,0,0,0,0,0,0,0,0,0,0,0,0,0,0,0,0,0,0,0,0,0,0,0,0,0,0,0,0,0,0,0,0,0,0,0,0,0,0,0,0,0,0,0,0,-10.5429,-10.5429,0,-10.5367,-10.5366,-10.5366,-10.5089,-10.5083,-10.5076,-10.507,-10.5011,-10.5015,-10.5019,0,0,0,0,0,0,0,0,0,0,0,0,0,-10.5315,-10.5319,-10.543,-10.5429,-10.5428,-10.5367,-10.5366,-10.5365,-10.509,-10.5082,-10.5075,-10.5067,-10.5009,-10.5014,-10.502,0,0,0,0,0,0,0,0,0,0,0,0,0,-10.532,-10.532,-10.543,-10.5283,-10.5269,-10.5367,-10.5366,-10.5365,-10.5092,-10.5082,-10.5073,-10.5064,-10.5007,-10.5014,-10.5021,-10.5256,0,0,-10.5041,-10.5044,0,0,0,0,0,0,0,0,-10.532,-10.5325,-10.5306,-10.5293,-10.5278,-10.5226,-10.5304,-10.5329,-10.5094,-10.516,-10.507,-10.5059,-10.509,-10.509,-10.5099,-10.5253,-10.525,-10.5041,-10.5045,-10.5048,-10.505,0,0,0,0,0,0,0,-10.532,-10.5326,-10.5405,-10.5306,-10.5289,-10.5222,-10.5212,-10.5307,-10.518,-10.5153,-10.5133,-10.5129,-10.5081,-10.5094,-10.5096,-10.5249,-10.5041,-10.5047,-10.5051,-10.5054,-10.5593,-10.5602,0,0,0,0,0,0,-10.534,-10.5327,-10.5407,-10.5403,-10.5276,-10.5232,-10.5221,-10.5253,-10.5178,-10.5158,-10.5137,-10.5116,-10.5087,-10.5088,-10.5093,-10.5361,-10.5048,-10.5055,-10.5058,-10.5582,-10.5595,-10.5606,0,0,0,0,0,0,-10.5339,-10.535,-10.5409,-10.536,-10.5362,-10.5244,-10.5282,-10.5257,-10.5268,-10.5166,-10.5143,-10.5173,-10.5079,-10.5083,-10.5217,-10.5356,-10.5058,-10.5064,-10.557,-10.5586,-10.5601,-10.5903,0,0,0,0,0,0,-10.5336,-10.5351,-10.5438,-10.5364,-10.5366,-10.5534,-10.5291,-10.5262,-10.528,-10.5252,-10.5194,-10.5175,-10.5072,-10.5208,-10.5224,-10.536,-10.5069,-10.5557,-10.5577,-10.5596,-10.588,-10.5927,-10.5967,0,0,0,0,0,-10.5333,-10.5527,-10.5444,-10.5455,-10.5472,-10.5542,-10.5543,-10.542,-10.5293,-10.5379,-10.5314,-10.5177,-10.5339,-10.5224,-10.5239,-10.5379,-10.5548,-10.5572,-10.5594,-10.5861,-10.5918,-10.5966,0,0,0,0,0,0,-10.5621,-10.5514,-10.5421,-10.5595,-10.558,-10.5495,-10.5601,-10.5485,-10.5506,-10.5479,-10.5327,-10.5316,-10.5472,-10.5439,-10.5313,-10.5603,-10.542,-10.5448,-10.5618,-10.5671,-10.5714,-10.5717,-10.5074,0,0,0,0,0,-10.5705,-10.577,-10.5673,-10.5837,-10.5834,-10.572,-10.5746,-10.5652,-10.5631,-10.5623,-10.5567,-10.5553,-10.56,-10.5634,-10.5672,-10.5876,-10.5858,-10.5979,-10.6023,-10.6059,-10.6084,-10.6188,-10.624,-10.5682,-10.5682,-10.5682,0,0,-10.5878,-10.5828,-10.5878,-10.5893,-10.587,-10.5941,-10.5716,-10.5801,-10.5853,-10.5636,-10.5757,-10.5718,-10.5691,-10.586,-10.5932,-10.5838,-10.6235,-10.6089,-10.6119,-10.6123,-10.6217,-10.627,-10.6317,-10.5698,-10.5695,-10.5693,0,0,-10.623,-10.62,-10.6331,-10.6313,-10.628,-10.6204,-10.6237,-10.617,-10.6134,-10.6254,-10.6092,-10.6153,-10.6238,-10.6226,-10.6231,-10.6582,-10.6456,-10.6599,-10.6825,-10.6929,-10.6973,-10.7011,-10.7134,-10.718,-10.6624,-10.6625,-10.6626,0,-10.645,-10.6549,-10.6414,-10.651,-10.6521,-10.6328,-10.6461,-10.6451,-10.6434,-10.6447,-10.6342,-10.6444,-10.6414,-10.6577,-10.6662,-10.6674,-10.6706,-10.6603,-10.6977,-10.7014,-10.7047,-10.7163,-10.7211,-10.6643,-10.6641,-10.6639,-10.6637,0,-10.6821,-10.6893,-10.7004,-10.699,-10.7015,-10.7129,-10.7013,-10.7054,-10.696,-10.6896,-10.7021,-10.6977,-10.7002,-10.7035,-10.6945,-10.7187,-10.7129,-10.7004,-10.6816,-10.712,-10.7227,-10.727,-10.6667,-10.6661,-10.6656,-10.6652,0,0,-10.7348,-10.726,-10.7303,-10.7294,-10.7245,-10.7299,-10.7406,-10.743,-10.7468,-10.7465,-10.755,-10.7628,-10.7511,-10.7517,-10.7424,-10.7516,-10.7795,-10.7378,-10.7375,-10.7455,-10.8057,-10.815,-10.8204,-10.7712,-10.772,-10.7727,-10.8059,0,-10.7682,-10.7856,-10.7739,-10.7933,-10.7998,-10.7817,-10.791,-10.7892,-10.7835,-10.7883,-10.7821,-10.7877,-10.772,-10.7723,-10.7806,-10.7743,-10.7913,-10.7718,-10.779,-10.7794,-10.7799,-10.8259,-10.8357,-10.8672,-10.81,-10.8107,-10.8112,0,-10.8093,-10.8106,-10.8307,-10.8245,-10.8267,-10.8353,-10.8365,-10.8414,-10.839,-10.8342,-10.8351,-10.8235,-10.8337,-10.8156,-10.8294,-10.8164,-10.8187,-10.8162,-10.8171,-10.817,-10.7969,-10.8269,-10.877,-10.8816,-10.8176,-10.8171,-10.8166,0,-10.8456,-10.8523,-10.8651,-10.865,-10.8582,-10.8646,-10.8621,-10.8587,-10.861,-10.8622,-10.8635,-10.8661,-10.8675,-10.8698,-10.8592,-10.847,-10.8745,-10.8555,-10.8708,-10.8711,-10.877,-10.8767,-10.928,-10.8792,-10.8791,-10.879,-10.8789,0,-10.8838,-10.8968,-10.8812,-10.8891,-10.9031,-10.8897,-10.904,-10.8996,-10.8968,-10.9036,-10.8884,-10.8951,-10.8809,-10.8863,-10.8782,-10.8908,-10.8917,-10.8881,-10.8858,-10.8893,-10.8897,-10.8904,-10.8878,-10.8803,-10.88,-10.8798,-10.8796,0,-10.9265,-10.9166,-10.9293,-10.9219,-10.9204,-10.931,-10.9247,-10.9317,-10.9251,-10.934,-10.9353,-10.9251,-10.9306,-10.9204,-10.9247,-10.9192,-10.9369,-10.9313,-10.9377,-10.9359,-10.9517,-10.9502,-11.0048,-11.0112,-10.9587,-10.9592,-10.9597,0,-10.9514,-10.9608,-10.9544,-10.9578,-10.9561,-10.9618,-10.9639,-10.9513,-10.9542,-10.9523,-10.9596,-10.9639,-10.9665,-10.9763,-10.9693,-10.9726,-10.9668,-10.9857,-10.9671,-10.9704,-10.9667,-10.9662,-10.967,-10.9894,-10.9901,-10.9906,-10.991,0,-10.9965,-10.9912,-10.9948,-10.9968,-10.9998,-11.0008,-11.0007,-11.0045,-10.991,-10.9951,-11.0005,-11.0026,-11.007,-11.0114,-11.013,-11.0106,-10.9987,-10.997,-11.0006,-11.0041,-11.0073,-11.0056,-10.9477,-10.9957,-10.9952,-10.9948,-10.9946,-10.9944,-11.0308,-11.0384,-11.035,-11.0396,-11.0382,-11.0385,-11.0447,-11.039,-11.0432,-11.0456,-11.038,-11.0452,-11.0427,-11.0436,-11.0425,-11.048,-11.0396,-11.045,-11.0463,-11.0478,-11.0502,-11.0068,-11.0484,-11.0482,-11.0481,-11.0479,-11.0478,0,-11.0749,-11.0719,-11.0763,-11.0766,-11.0803,-11.0687,-11.0681,-11.0719,-11.0784,-11.077,-11.08,-11.0863,-11.0906,-11.0841,-11.0873,-11.093,-11.0876,-11.0942,-11.0935,-11.0931,-11.0576,-11.054,-11.0985,-11.0985,-11.0985,-11.0985,-11.0985,-11.0985,-11.0983,-11.1104,-11.1048,-11.1162,-11.1131,-11.1198,-11.1205,-11.1208,-11.1196,-11.1272,-11.1306,-11.1263,-11.123,-11.1258,-11.1293,-11.1273,-11.1291,-11.1377,-11.1338,-11.1006,-11.0956,-11.0909,-11.0874,-11.1382,-11.1383,-11.1687,-11.169,-11.1692]},{"header":{"parameterUnit":"m.s-1","parameterCategory":1,"la1":30.2991,"la2":30.254,"lo1":-89.0895,"lo2":-89.0444,"dy":0.0017,"dx":0.0017,"nx":28,"ny":28,"refTime":"2024-06-18T03:00:00:Z","depth":0,"parameterNumber":3,"parameterNumberName":"V-component_of_WINDS"},"data":[0,0,0,0,0,0,0,0,0,0,0,0,0,0,0,0,0,0,0,0,0,0,0,0,0,0,0,0,0,0,0,0,0,0,0,0,0,0,0,0,0,0,0,0,0,0,0,0,0,0,0,0,0,0,0,0,0,0,0.5954,0.5955,0,0.6084,0.6085,0.6087,0.6142,0.6142,0.6142,0.6141,0.6272,0.6276,0.628,0,0,0,0,0,0,0,0,0,0,0,0,0,0.5752,0.5755,0.5953,0.5955,0.5957,0.6083,0.6085,0.6087,0.6142,0.6142,0.6142,0.6141,0.6271,0.6276,0.628,0,0,0,0,0,0,0,0,0,0,0,0,0,0.5856,0.5756,0.5953,0.5999,0.6005,0.6083,0.6085,0.6088,0.6142,0.6142,0.6141,0.6141,0.627,0.6275,0.6281,0.6322,0,0,0.6298,0.63,0,0,0,0,0,0,0,0,0.585,0.5863,0.5991,0.5996,0.6003,0.6096,0.6062,0.6166,0.6142,0.609,0.6141,0.6141,0.6214,0.6224,0.6249,0.6328,0.6333,0.6298,0.6301,0.6304,0.6305,0,0,0,0,0,0,0,0.5843,0.5858,0.6005,0.5993,0.6,0.6014,0.6028,0.6082,0.6152,0.6094,0.6099,0.6114,0.6217,0.6244,0.6253,0.6335,0.6298,0.6303,0.6306,0.6308,0.6456,0.6457,0,0,0,0,0,0,0.5828,0.5852,0.6001,0.6009,0.5924,0.6017,0.6034,0.6067,0.6152,0.6164,0.6114,0.6116,0.6234,0.6246,0.6257,0.6313,0.6304,0.6309,0.6312,0.6455,0.6456,0.6457,0,0,0,0,0,0,0.5824,0.5841,0.5996,0.5932,0.5952,0.6021,0.6058,0.6069,0.6096,0.6166,0.6179,0.6128,0.6235,0.625,0.6306,0.6318,0.6311,0.6316,0.6455,0.6456,0.6456,0.6422,0,0,0,0,0,0,0.5818,0.5839,0.5855,0.5932,0.5956,0.6042,0.6059,0.6072,0.6106,0.611,0.6183,0.6195,0.6235,0.6297,0.6311,0.6325,0.6321,0.6454,0.6455,0.6456,0.6422,0.6421,0.6421,0,0,0,0,0,0.581,0.5839,0.5856,0.5874,0.5978,0.6042,0.6056,0.6103,0.6106,0.6124,0.6169,0.6193,0.6314,0.6303,0.6319,0.6335,0.6453,0.6455,0.6456,0.6423,0.6422,0.6421,0,0,0,0,0,0,0.5762,0.585,0.5869,0.5924,0.5976,0.6052,0.6075,0.61,0.615,0.6152,0.6207,0.6223,0.6275,0.631,0.6296,0.638,0.6386,0.639,0.6355,0.6354,0.6354,0.6344,0.6325,0,0,0,0,0,0.5757,0.5803,0.5878,0.5919,0.5944,0.6005,0.6035,0.6067,0.6121,0.6143,0.6193,0.6245,0.6295,0.6326,0.6376,0.6428,0.6445,0.6447,0.6446,0.6445,0.6448,0.648,0.6482,0.6461,0.6461,0.6461,0,0,0.5749,0.5803,0.5828,0.5911,0.5954,0.6001,0.6023,0.607,0.6105,0.615,0.6207,0.6245,0.6307,0.6361,0.6387,0.6392,0.6458,0.6447,0.6445,0.6449,0.6481,0.6483,0.6485,0.6462,0.6462,0.6462,0,0,0.5757,0.5803,0.5843,0.5886,0.5953,0.5993,0.6003,0.6076,0.6103,0.6161,0.6196,0.6238,0.6323,0.6366,0.6399,0.6426,0.645,0.644,0.6436,0.6466,0.6468,0.6469,0.648,0.6483,0.6443,0.6443,0.6443,0,0.5738,0.581,0.586,0.5907,0.5942,0.5986,0.6028,0.6067,0.6146,0.6169,0.6174,0.6282,0.6327,0.6393,0.6399,0.6424,0.6437,0.6432,0.6464,0.6466,0.6468,0.6479,0.6482,0.6442,0.6442,0.6442,0.6442,0,0.5784,0.5833,0.5858,0.5934,0.5972,0.6016,0.6072,0.6105,0.6134,0.6174,0.6233,0.6288,0.635,0.6368,0.6396,0.6439,0.644,0.6453,0.646,0.6468,0.6479,0.6483,0.644,0.644,0.644,0.6441,0,0,0.5764,0.5869,0.5878,0.5914,0.5991,0.6029,0.6075,0.6138,0.6165,0.6218,0.6258,0.633,0.6343,0.638,0.6413,0.6439,0.6459,0.645,0.6452,0.6451,0.651,0.65,0.6504,0.6475,0.6476,0.6477,0.6505,0,0.5784,0.5869,0.5916,0.5982,0.6028,0.6072,0.6112,0.6163,0.6202,0.6247,0.629,0.634,0.6354,0.6377,0.6404,0.645,0.6471,0.6449,0.6513,0.6515,0.6497,0.651,0.6499,0.6523,0.651,0.6511,0.6511,0,0.5818,0.5872,0.5942,0.6016,0.6037,0.6072,0.6134,0.6177,0.6236,0.6263,0.6305,0.6338,0.6389,0.6392,0.6462,0.6445,0.6474,0.6501,0.6503,0.6511,0.6514,0.6519,0.6532,0.6536,0.6518,0.6518,0.6517,0,0.5798,0.5888,0.5943,0.5972,0.6058,0.6082,0.6119,0.6179,0.6214,0.6268,0.6291,0.6349,0.6381,0.6425,0.6474,0.6471,0.6539,0.6546,0.6563,0.6562,0.6575,0.6574,0.6594,0.6593,0.6593,0.6593,0.6592,0,0.5815,0.5857,0.5935,0.5968,0.6017,0.607,0.6116,0.6157,0.621,0.6252,0.6292,0.633,0.6391,0.6437,0.6475,0.6528,0.6542,0.6565,0.6574,0.6562,0.6559,0.6582,0.6581,0.6594,0.6593,0.6593,0.6593,0,0.5801,0.5855,0.5918,0.5995,0.6016,0.6048,0.6114,0.6148,0.619,0.6242,0.6258,0.6323,0.6379,0.6432,0.6506,0.6532,0.6585,0.6597,0.6566,0.6571,0.6585,0.6583,0.6622,0.663,0.6621,0.6621,0.6621,0,0.5809,0.5842,0.5924,0.5956,0.5993,0.6043,0.608,0.6134,0.617,0.6242,0.6267,0.6327,0.6378,0.6466,0.6519,0.6577,0.6591,0.66,0.66,0.6586,0.6592,0.659,0.6594,0.6599,0.6599,0.6599,0.6599,0,0.5817,0.5843,0.5895,0.5956,0.5999,0.605,0.6102,0.6125,0.619,0.6228,0.6288,0.6327,0.6404,0.6463,0.6527,0.6565,0.6593,0.6599,0.6606,0.6594,0.6574,0.6586,0.6564,0.6598,0.6598,0.6598,0.6598,0.6598,0.5815,0.5848,0.5911,0.5968,0.6013,0.6061,0.6098,0.6145,0.6195,0.6263,0.6292,0.6352,0.6412,0.6501,0.6539,0.6586,0.6592,0.6602,0.6605,0.6607,0.6605,0.6566,0.6598,0.6598,0.6598,0.6598,0.6598,0,0.5827,0.587,0.5922,0.5994,0.6039,0.6063,0.6122,0.6158,0.621,0.6265,0.6314,0.6383,0.644,0.6499,0.656,0.6587,0.6601,0.6601,0.66,0.6608,0.6595,0.6584,0.6588,0.6588,0.6588,0.6588,0.6588,0.6588,0.5838,0.5895,0.5928,0.6008,0.6051,0.6111,0.6143,0.6188,0.6232,0.6307,0.6355,0.6394,0.645,0.6516,0.657,0.6585,0.6606,0.6603,0.6622,0.6609,0.6609,0.6609,0.6599,0.6606,0.6606,0.6631,0.6631,0.6631]}]]